Temp
76 71 68 73 76 77 75 72 71 77 81 75 74 75 80 84 84 83 84 85 86 88 92 94 94 94 93 92 91 90 88 88 88 89 88 87 87 89 91 92 91 89 88 88
73 66 76 79 77 73 70 68 69 75 79 75 73 73 79 82 82 84 84 84 86 87 89 91 92 92 91 90 90 88 87 87 88 89 89 91 90 92 92 92 90 90 89 87
68 74 77 75 72 68 69 67 68 69 75 76 72 68 73 80 83 84 85 87 87 87 87 88 90 90 90 89 89 89 89 87 86 87 90 89 89 91 91 90 90 91 89 89
72 78 73 70 69 71 64 74 72 69 66 61 75 59 71 77 78 81 83 84 85 87 88 88 88 88 88 90 91 90 88 86 87 85 85 83 86 85 90 91 93 92 89 88
69 71 70 68 70 74 68 76 71 70 66 65 66 62 68 76 74 78 81 83 86 88 88 88 89 88 90 90 89 89 88 86 84 84 84 84 83 89 90 92 89 87 88 87
71 79 74 73 76 75 76 71 69 69 66 55 63 63 65 72 75 78 81 83 85 87 86 86 87 87 87 90 89 88 85 83 84 83 82 81 80 81 86 88 89 91 91 88
68 69 75 76 69 74 71 64 54 53 54 53 68 64 67 76 79 80 79 81 83 83 83 84 83 84 84 84 85 85 84 82 82 82 82 81 80 80 79 81 85 86 88 90
56 54 69 73 68 64 68 65 56 46 50 58 69 59 69 78 81 80 81 80 79 80 81 81 82 83 84 83 82 83 82 81 82 81 81 82 81 83 83 83 84 85 89 88
56 56 71 73 75 72 63 59 69 59 61 56 61 67 75 77 76 78 78 78 77 77 78 80 82 82 82 81 82 81 80 80 81 80 79 79 80 80 80 80 80 82 82 89
62 50 66 69 72 72 67 71 54 57 43 43 55 58 61 68 70 73 74 74 76 76 78 79 81 81 81 82 81 82 82 80 81 81 79 80 79 80 80 81 80 78 80 80
62 54 56 63 57 60 61 58 59 58 54 42 43 54 64 66 68 68 69 72 73 75 77 78 79 81 82 81 82 81 80 80 80 80 79 77 77 76 78 77 77 78 78 75
59 52 47 55 66 67 64 59 58 46 43 52 49 51 70 65 70 69 71 73 75 75 75 77 78 79 80 79 79 78 78 77 77 77 77 76 74 72 68 70 73 79 79 80
54 44 43 50 60 65 59 61 60 59 55 46 41 48 67 65 67 68 69 70 73 73 74 75 75 75 75 75 75 75 76 77 77 76 76 74 73 72 70 71 73 74 78 79
53 51 45 41 49 48 47 50 56 52 39 45 47 52 60 58 58 61 67 70 71 71 71 72 71 71 69 69 70 73 75 75 75 75 74 72 70 70 68 71 73 73 72 75
45 40 49 51 52 55 54 54 54 50 52 44 50 52 58 61 64 66 68 68 68 68 68 69 68 70 66 66 68 71 73 73 72 72 71 71 71 68 63 62 66 70 73 75
46 42 48 45 53 53 50 54 55 54 54 53 54 53 64 66 69 67 66 66 62 63 66 68 70 70 67 66 68 70 70 70 71 70 70 71 72 72 67 61 59 63 69 72
41 44 41 42 50 50 45 54 55 56 58 57 51 58 63 60 59 62 65 65 65 67 69 69 69 70 69 69 66 65 67 70 69 68 69 70 70 71 71 68 61 58 63 67
40 42 43 41 46 34 53 60 59 55 58 61 60 61 61 61 64 67 69 68 67 68 68 68 69 68 68 69 68 68 68 67 67 67 68 69 69 70 71 70 67 62 58 59
49 45 37 36 40 48 52 54 55 51 52 59 57 60 61 64 65 64 70 70 67 67 67 68 70 69 67 65 63 63 62 63 64 66 67 68 69 68 69 68 68 66 65 62
49 48 37 38 32 35 46 55 60 59 47 58 59 59 60 62 54 61 67 67 67 67 68 67 68 68 66 64 63 61 61 61 60 62 63 67 67 66 65 66 66 67 67 66
39 39 36 39 36 46 53 57 60 42 40 54 59 60 59 57 60 63 66 65 66 65 65 67 66 66 65 63 61 57 54 55 56 59 61 61 62 63 64 64 66 65 65 65
36 37 38 40 35 34 57 56 47 50 58 59 60 60 59 60 61 62 64 63 63 63 65 66 64 64 62 61 59 54 52 57 55 55 55 54 55 58 60 58 58 59 59 60
38 43 38 41 41 52 58 57 60 61 59 60 60 61 61 60 60 62 61 61 62 63 64 66 63 59 58 58 55 53 53 55 53 53 51 52 53 55 56 55 55 58 58 58
52 54 48 47 52 55 58 60 63 63 62 62 62 61 61 59 60 60 60 59 61 63 61 62 56 52 51 55 54 51 52 53 51 48 48 49 50 50 52 53 52 52 53 55
54 56 53 52 56 57 60 60 62 63 64 62 62 61 60 60 58 57 58 60 61 61 59 53 49 48 45 47 49 52 51 49 48 47 48 48 50 50 50 51 52 52 53 52
57 49 46 45 53 54 55 61 62 57 59 59 58 57 59 58 56 59 59 59 56 50 47 46 47 46 46 47 47 49 51 49 46 46 47 48 49 49 49 46 46 46 45 46
MSLP
1003.77 1002.93 1001.74 1001.08 1000.98 1000.40 999.80 999.68 998.89 998.86 999.38 1000.02 1000.04 999.86 999.43 999.60 999.92 1000.05 1000.57 1000.72 1000.89 1000.95 1001.09 1001.43 1001.85 1002.44 1002.78 1002.99 1003.33 1003.66 1004.07 1004.45 1004.91 1005.22 1005.39 1005.65 1005.55 1005.73 1006.07 1006.34 1006.50 1007.00 1007.50 1007.81
1002.57 1001.94 1001.24 1001.02 1000.79 1000.92 1001.13 1000.74 1000.15 999.93 999.82 1000.22 1000.06 999.66 999.44 999.27 999.42 999.72 999.94 1000.18 1000.26 1000.52 1001.07 1001.28 1001.63 1002.09 1002.44 1002.89 1003.23 1003.67 1004.07 1004.42 1004.54 1004.66 1004.69 1004.59 1004.68 1004.66 1004.91 1005.40 1005.86 1006.27 1006.63 1007.11
1001.53 1000.58 1001.17 1001.12 1001.30 1001.62 1001.31 1000.80 1000.37 1000.13 999.87 1000.18 1000.35 999.63 999.22 999.00 998.98 999.24 999.49 999.68 1000.01 1000.25 1000.56 1000.98 1001.24 1001.92 1002.34 1002.51 1002.90 1003.31 1003.78 1004.23 1004.30 1004.31 1004.14 1004.36 1004.48 1004.19 1004.00 1004.44 1004.78 1005.08 1005.63 1006.20
1001.33 1001.14 1001.07 1001.57 1001.17 1001.39 1000.83 1000.80 1000.80 1000.62 1000.61 999.77 999.43 998.16 997.52 997.48 997.71 998.15 998.79 999.27 999.63 999.76 1000.22 1000.73 1001.27 1001.88 1002.30 1002.45 1002.65 1002.92 1003.54 1003.81 1003.99 1004.28 1004.02 1003.87 1003.57 1003.53 1003.46 1003.42 1003.35 1003.94 1004.83 1005.61
1000.99 1000.90 1001.00 1000.84 1000.88 1001.09 1000.70 1000.47 1000.78 1001.02 1000.69 1000.21 999.39 998.62 997.41 997.30 997.14 997.42 998.27 998.81 999.02 999.37 999.85 1000.33 1000.89 1001.66 1002.15 1002.52 1002.91 1003.00 1003.19 1003.54 1003.91 1004.00 1003.94 1003.82 1003.52 1003.15 1003.19 1002.90 1002.73 1003.07 1003.77 1004.64
1001.63 1001.12 1001.29 1000.77 1000.93 1001.07 1001.19 1001.19 1001.39 1001.32 1000.77 999.46 998.85 998.11 996.59 996.16 996.03 996.64 997.88 998.43 998.88 999.29 999.96 1000.88 1001.59 1002.17 1002.44 1002.39 1002.50 1002.80 1003.21 1003.54 1003.66 1003.88 1003.83 1003.81 1003.63 1003.35 1002.73 1002.22 1002.37 1002.38 1002.62 1003.56
1001.56 1001.26 1001.15 1001.44 1001.08 1001.05 1001.50 1001.35 1000.66 999.92 999.07 997.76 997.32 996.55 995.81 995.57 996.00 996.88 997.60 998.40 999.26 1000.22 1000.98 1001.40 1001.91 1002.21 1002.60 1002.80 1002.86 1003.24 1003.34 1003.59 1003.64 1003.59 1003.53 1003.45 1003.39 1003.31 1003.12 1002.71 1002.57 1002.02 1001.42 1001.57
1001.64 1000.76 1000.64 1001.03 1001.07 1000.91 1000.50 1000.89 1000.09 999.02 998.19 996.83 996.04 995.45 994.84 995.71 996.55 997.74 998.40 999.56 1000.52 1001.25 1001.63 1002.10 1002.34 1002.47 1002.76 1002.91 1003.38 1003.50 1003.60 1003.49 1003.50 1003.40 1003.26 1003.03 1002.95 1002.73 1002.45 1002.31 1002.26 1002.17 1001.43 999.87
1002.34 1001.94 1001.48 1001.26 1000.62 1001.06 1001.28 1000.76 1000.47 1000.03 999.56 998.49 997.57 996.38 995.86 996.32 996.85 997.82 998.66 999.56 1000.77 1001.64 1002.29 1002.39 1002.45 1002.71 1002.80 1003.11 1003.13 1003.49 1003.52 1003.54 1003.37 1003.30 1003.14 1002.84 1002.67 1002.42 1002.17 1001.88 1001.73 1001.96 1001.81 1000.89
1003.85 1003.44 1002.51 1001.88 1001.87 1001.69 1001.59 1001.45 1001.79 1001.74 1000.84 999.50 998.44 997.40 996.42 996.50 997.01 998.19 998.87 1000.10 1000.88 1001.84 1002.27 1002.41 1002.54 1002.67 1002.89 1003.00 1003.04 1002.85 1002.72 1003.17 1003.09 1003.00 1003.04 1002.53 1002.27 1002.04 1001.85 1001.58 1001.44 1001.68 1001.61 1001.41
1006.09 1005.72 1004.23 1003.15 1003.24 1002.26 1002.01 1002.36 1002.68 1002.90 1002.56 1001.57 1000.12 998.71 999.01 999.04 999.43 999.66 1000.51 1001.03 1001.67 1002.14 1002.46 1002.75 1002.79 1002.68 1002.70 1002.96 1002.96 1002.76 1002.80 1002.78 1002.79 1002.95 1002.74 1002.83 1002.62 1002.40 1001.81 1001.51 1001.34 1001.31 1001.65 1001.52
1007.18 1007.11 1005.54 1003.74 1002.79 1002.84 1002.78 1002.39 1003.05 1003.26 1003.36 1002.44 1001.54 1000.02 999.66 1000.83 1000.63 1000.88 1001.17 1001.55 1001.90 1002.48 1002.97 1003.16 1002.98 1002.71 1002.59 1002.74 1003.07 1003.27 1003.26 1003.50 1003.06 1003.06 1002.94 1002.95 1003.19 1002.70 1002.44 1002.37 1001.79 1001.27 1001.11 1001.22
1008.95 1008.55 1006.51 1004.13 1002.88 1002.37 1002.38 1002.83 1003.21 1003.64 1003.80 1003.25 1003.06 1001.23 1001.54 1001.66 1001.53 1001.83 1002.21 1002.18 1002.40 1002.86 1003.05 1003.16 1003.17 1003.15 1003.27 1003.53 1003.71 1003.96 1003.96 1003.58 1003.64 1003.74 1003.40 1003.44 1003.43 1003.20 1003.02 1003.07 1002.56 1002.28 1001.46 1001.42
1010.53 1009.09 1007.82 1005.99 1004.18 1005.06 1004.57 1004.61 1004.12 1004.50 1004.50 1003.75 1002.82 1001.99 1001.69 1002.42 1002.91 1003.30 1002.63 1002.30 1002.70 1002.84 1003.10 1003.58 1004.08 1004.31 1004.54 1004.60 1004.39 1004.20 1004.02 1004.06 1003.88 1003.73 1003.51 1003.64 1003.94 1003.74 1003.59 1003.47 1003.40 1003.06 1002.53 1001.72
1011.58 1009.93 1008.28 1006.91 1005.95 1004.84 1004.22 1003.97 1004.17 1004.19 1004.00 1003.70 1003.07 1002.24 1002.03 1001.96 1001.95 1002.16 1002.42 1002.75 1002.92 1003.19 1003.55 1003.71 1003.93 1004.14 1004.68 1004.70 1004.50 1004.44 1004.32 1004.30 1004.30 1003.98 1003.74 1003.33 1003.45 1004.00 1003.97 1003.47 1004.16 1003.70 1002.56 1001.68
1011.55 1010.01 1008.64 1007.26 1006.08 1005.21 1004.29 1003.79 1003.49 1003.36 1003.35 1003.14 1002.95 1002.26 1002.00 1001.91 1001.83 1001.83 1002.25 1002.73 1003.35 1003.82 1003.57 1003.40 1003.27 1003.44 1003.94 1004.23 1004.22 1004.08 1004.07 1004.27 1004.17 1003.83 1003.61 1003.26 1002.93 1002.85 1003.42 1003.74 1004.00 1004.12 1003.51 1002.43
1011.59 1010.45 1009.20 1006.97 1005.78 1004.95 1003.69 1002.47 1002.12 1002.21 1002.26 1002.16 1001.61 1001.35 1001.79 1002.18 1003.42 1002.95 1002.74 1002.69 1002.79 1002.74 1002.66 1003.00 1003.18 1003.14 1003.30 1003.44 1003.82 1003.95 1003.95 1003.77 1003.68 1003.49 1003.08 1002.74 1002.48 1002.07 1001.98 1002.54 1003.11 1003.21 1003.33 1002.61
1011.60 1010.48 1009.55 1007.65 1006.30 1004.68 1002.57 1002.59 1002.29 1002.24 1001.98 1001.37 1001.46 1001.75 1002.45 1002.66 1002.83 1002.91 1002.87 1002.63 1002.56 1002.42 1002.68 1003.04 1003.16 1003.15 1003.34 1003.49 1003.54 1003.47 1003.37 1003.16 1002.99 1002.70 1002.37 1002.09 1001.87 1001.45 1001.18 1001.15 1001.54 1002.09 1002.06 1001.65
1010.99 1010.33 1009.57 1008.13 1006.08 1004.59 1003.24 1003.01 1002.57 1002.65 1002.53 1002.79 1002.59 1002.69 1002.97 1002.96 1002.89 1002.47 1001.88 1002.20 1002.69 1003.10 1003.23 1002.99 1002.77 1002.81 1002.96 1003.28 1003.53 1003.40 1003.25 1003.09 1002.57 1001.91 1001.58 1001.26 1001.06 1000.91 1000.66 1000.39 1000.40 1000.62 1000.96 1001.17
1009.61 1009.70 1009.71 1008.37 1006.88 1004.45 1003.83 1003.76 1003.75 1003.61 1003.26 1003.83 1003.73 1003.55 1003.56 1003.44 1002.62 1001.78 1002.15 1002.84 1003.03 1003.10 1002.97 1002.68 1002.46 1002.37 1002.28 1002.62 1003.06 1003.00 1002.76 1002.48 1002.27 1001.83 1001.47 1000.69 1000.53 1000.40 1000.35 1000.15 1000.01 1000.06 1000.12 1000.33
1008.72 1008.90 1008.62 1007.87 1006.78 1004.68 1004.49 1004.38 1004.44 1004.28 1005.79 1005.23 1004.60 1004.30 1004.12 1003.81 1003.41 1003.24 1003.20 1002.97 1003.05 1003.16 1002.86 1002.46 1002.04 1001.63 1001.50 1001.95 1002.46 1002.47 1002.74 1002.46 1002.38 1002.21 1001.41 1001.05 1000.64 1000.26 999.99 999.88 999.73 999.66 999.66 999.73
1008.70 1008.28 1007.69 1007.34 1006.56 1005.36 1004.78 1004.74 1004.76 1005.48 1005.19 1004.94 1004.74 1004.67 1004.43 1004.16 1003.83 1003.45 1003.09 1002.83 1002.72 1002.37 1001.87 1001.71 1001.38 1001.13 1001.23 1001.64 1001.63 1001.74 1001.82 1001.88 1001.81 1001.49 1001.16 1000.91 1000.80 1000.55 1000.03 999.84 999.58 999.30 999.13 998.97
1007.89 1007.98 1007.14 1007.12 1006.19 1005.90 1005.26 1005.02 1005.10 1005.30 1005.09 1004.96 1004.93 1004.75 1004.56 1004.12 1003.61 1003.22 1002.83 1002.76 1002.31 1001.71 1001.14 1001.03 1000.93 1000.94 1001.30 1001.27 1001.40 1000.82 1000.69 1001.06 1000.94 1000.62 1000.46 1000.26 1000.19 999.92 999.83 999.63 999.31 998.94 998.84 998.64
1006.61 1006.87 1006.32 1006.27 1005.60 1004.99 1004.86 1004.91 1004.83 1004.81 1004.84 1005.00 1005.05 1004.78 1004.52 1004.07 1003.68 1003.22 1003.11 1002.74 1001.86 1001.33 1001.07 1000.85 1001.32 1001.66 1001.32 1000.97 1000.70 1000.62 1000.26 1000.07 1000.02 999.90 999.78 999.58 999.32 999.12 998.97 998.83 998.73 998.62 998.23 997.90
1006.17 1005.76 1005.22 1005.13 1004.79 1004.93 1004.55 1005.06 1004.82 1004.73 1004.75 1004.98 1005.11 1005.07 1004.64 1004.05 1003.73 1003.75 1002.95 1002.14 1001.56 1001.12 1001.38 1002.06 1002.20 1001.70 1001.07 1000.69 1000.19 999.76 999.53 999.61 999.03 998.80 998.52 998.34 998.16 998.04 997.87 997.68 997.54 997.45 997.34 997.34
1005.91 1006.18 1006.14 1005.64 1005.99 1005.89 1005.44 1005.19 1005.23 1005.57 1005.33 1005.52 1005.33 1004.98 1004.71 1004.55 1003.99 1003.21 1002.56 1002.21 1002.35 1002.76 1002.98 1002.57 1001.87 1001.07 1000.48 1000.01 999.37 999.07 998.80 998.51 998.15 997.85 997.89 997.59 997.33 996.92 996.62 996.58 996.42 996.36 996.35 996.44
Wind_Speed
15 12 15 17 18 17 12 14 11 12 12 9 13 15 16 14 16 15 14 14 13 14 12 12 8 7 6 3 4 7 10 10 11 11 12 12 13 13 13 13 14 16 15 17
12 15 16 14 8 9 9 15 15 13 10 11 14 17 17 16 16 16 15 16 14 11 13 13 11 10 8 6 4 4 8 9 10 11 10 11 11 13 13 13 14 16 17 16
16 10 7 13 11 14 16 17 15 15 9 12 14 17 18 17 17 14 16 15 13 13 12 11 11 7 10 10 8 6 4 7 10 12 9 9 10 9 11 13 13 14 17 16
14 16 11 11 18 17 17 17 14 13 12 14 18 14 15 17 19 20 17 15 17 17 12 12 10 10 11 10 11 9 7 7 7 10 12 14 12 13 13 13 13 13 16 17
14 14 13 17 15 17 15 10 8 13 15 17 19 14 14 15 16 17 15 15 12 10 10 9 6 6 8 7 8 10 8 7 8 8 10 12 15 13 12 13 13 12 12 17
18 7 6 12 14 15 14 11 12 15 14 17 19 19 15 14 12 14 12 12 12 10 1 5 6 8 9 8 8 9 9 10 10 10 11 12 15 15 13 13 12 12 12 12
18 18 16 12 12 10 12 13 11 15 16 15 19 19 14 11 4 8 5 4 5 6 5 6 6 8 7 9 7 7 7 9 11 11 11 13 13 14 16 15 13 14 11 15
14 13 17 15 18 17 17 18 14 18 16 16 8 9 7 3 3 3 2 2 3 1 7 6 8 7 10 7 10 11 11 11 11 12 13 11 12 11 12 15 15 13 13 13
12 20 22 12 10 17 20 21 20 23 21 18 18 25 21 14 18 15 12 5 5 2 5 8 8 10 10 11 10 8 9 12 10 11 11 12 12 12 13 15 12 12 15 12
10 13 17 10 10 14 19 13 10 13 16 23 16 19 13 9 3 5 10 6 5 4 10 12 13 12 10 12 12 14 8 9 12 9 10 10 11 13 14 13 14 13 13 14
17 11 13 11 10 17 14 16 19 16 16 11 14 11 10 6 1 4 4 3 6 9 12 15 16 14 11 10 14 13 10 10 7 10 9 8 9 10 12 11 9 13 13 14
2 6 13 22 20 19 21 17 20 11 9 14 13 15 10 6 10 3 7 9 10 12 13 14 15 16 13 12 10 13 9 10 12 9 10 10 10 9 7 9 8 11 12 11
6 6 10 14 19 22 15 17 15 16 16 20 17 11 4 10 7 7 10 13 9 10 11 11 15 12 11 10 8 11 14 11 7 9 11 6 6 6 9 11 12 12 10 10
5 14 16 15 15 3 9 12 13 9 6 10 18 21 17 11 9 12 18 9 9 9 10 9 11 11 11 9 9 11 11 10 12 11 10 7 9 6 3 8 11 10 11 11
3 10 17 18 19 21 20 18 17 19 18 19 19 21 19 17 17 10 9 8 8 11 12 11 10 10 9 10 9 11 12 12 13 13 12 13 8 8 8 2 12 18 11 11
6 10 11 17 18 18 18 19 20 22 22 22 22 23 20 19 5 8 8 9 10 11 14 15 15 11 10 8 11 13 13 14 15 14 15 15 14 8 8 8 6 11 15 12
5 8 5 12 6 11 14 18 19 19 20 21 20 16 11 2 4 7 12 12 12 14 17 13 16 12 12 12 11 13 16 16 15 17 17 16 17 15 11 9 10 10 16 10
9 11 5 8 8 12 5 2 5 7 11 9 6 7 10 9 10 10 15 16 18 13 15 15 15 15 15 17 19 19 18 16 18 19 19 17 17 18 16 13 13 12 11 9
20 16 5 5 8 11 14 3 4 4 7 7 11 4 5 10 15 17 17 10 14 17 17 17 16 16 16 17 14 15 14 18 21 21 21 20 17 18 17 16 14 11 10 11
13 17 11 4 5 7 5 5 4 4 9 8 8 9 14 16 14 12 19 19 19 19 18 19 20 20 17 15 15 20 22 19 19 19 20 18 17 18 19 17 14 12 12 14
3 4 10 12 8 7 4 1 4 8 5 11 13 14 16 16 15 20 20 20 20 21 23 22 22 21 19 15 14 16 16 19 17 20 21 21 21 18 18 17 15 14 14 15
3 6 6 8 5 6 3 2 6 5 9 12 13 14 16 17 20 21 21 21 21 23 23 23 20 21 17 18 17 15 18 20 18 17 17 15 15 16 14 15 13 13 13 14
4 6 3 3 2 4 3 3 5 7 10 11 15 16 17 20 21 22 21 23 24 25 22 22 21 19 20 19 19 19 16 18 17 17 16 15 17 16 16 17 16 16 15 14
2 5 5 6 4 2 3 3 3 10 11 15 16 18 19 21 22 23 21 23 23 23 23 19 18 20 22 21 22 19 16 16 19 17 17 16 16 15 15 12 12 13 14 14
9 10 10 11 2 8 6 9 11 15 14 15 18 20 21 22 22 23 23 24 22 22 22 20 20 21 23 19 20 19 17 18 16 16 15 15 13 15 14 15 13 13 14 14
4 6 5 5 7 7 12 15 18 17 18 20 19 21 21 22 23 24 22 22 22 23 20 20 22 19 19 21 17 18 16 16 16 14 12 12 12 12 11 11 12 18 23 21
Wind_Direction
204 218 215 224 224 254 314 287 276 232 232 201 237 254 237 232 230 231 224 232 237 236 239 233 227 252 248 263 236 234 222 239 202 214 214 214 226 220 220 226 220 215 212 220
197 233 250 232 256 254 261 251 251 263 257 245 259 252 248 246 242 245 226 235 232 228 235 241 236 239 266 268 259 251 243 237 231 219 225 234 217 226 219 218 220 215 208 215
242 237 217 261 220 239 235 246 245 253 262 210 251 261 257 254 249 240 246 242 249 250 254 259 250 252 270 276 268 264 267 250 239 242 234 231 251 252 228 219 220 210 214 214
241 248 229 246 234 222 242 221 249 268 249 252 230 263 250 226 225 223 226 237 241 238 223 224 237 229 242 265 280 289 290 288 255 243 249 253 239 232 233 236 220 212 205 219
239 223 249 229 240 227 247 272 255 245 254 266 255 253 260 244 245 227 217 242 235 237 247 251 236 306 300 274 276 284 284 279 288 275 263 254 245 248 237 255 239 217 201 206
261 282 269 255 229 243 255 257 252 249 248 244 244 251 255 257 232 193 228 233 231 238 240 336 310 310 286 295 314 322 316 307 289 280 273 261 262 276 267 240 245 227 215 195
236 246 250 223 259 224 235 224 244 234 225 242 240 236 245 251 182 221 226 257 39 16 314 287 317 306 332 305 320 314 299 304 297 290 278 270 260 260 263 264 255 259 232 207
279 262 214 220 241 260 227 225 250 269 270 272 298 268 241 202 228 285 250 45 319 307 338 328 306 308 307 327 321 325 317 311 308 300 293 282 273 262 255 246 256 252 244 248
258 253 271 253 290 218 242 263 279 284 284 278 281 286 278 182 191 201 226 197 219 199 295 290 297 317 316 311 292 295 311 309 304 307 301 285 276 266 268 272 269 235 257 247
298 303 267 266 262 260 275 284 277 266 271 259 254 263 274 311 30 219 206 202 222 299 307 311 311 300 304 306 295 282 281 311 306 306 307 291 286 275 265 258 259 250 243 255
278 268 269 260 254 268 241 240 256 265 269 272 279 272 78 286 140 283 165 265 302 302 311 315 307 295 291 308 313 318 311 287 297 324 315 307 305 323 309 276 277 258 243 255
341 280 256 260 263 240 272 266 240 245 257 266 282 274 292 96 277 178 272 288 307 326 313 299 291 293 302 306 315 319 329 301 325 340 353 11 4 355 349 311 293 259 240 220
347 220 272 261 238 236 239 242 253 257 263 251 259 252 337 4 327 316 309 290 307 298 288 311 317 321 322 324 314 315 316 318 327 325 300 312 335 8 14 336 314 300 267 228
304 270 261 273 292 152 276 299 291 256 256 274 255 265 297 186 264 284 272 307 304 296 310 324 299 311 312 312 313 310 303 313 306 312 301 283 282 309 328 346 325 275 264 250
221 254 256 264 271 283 279 269 254 260 262 262 280 289 289 287 291 305 320 303 299 316 316 303 268 260 263 280 293 292 294 304 302 292 295 292 259 265 277 32 319 312 304 287
215 262 270 269 257 258 266 263 258 258 260 261 267 263 265 267 315 327 331 312 330 280 259 265 282 289 305 307 297 292 291 289 292 288 286 285 286 257 255 230 219 283 292 309
263 244 231 262 254 261 259 253 249 249 246 243 252 263 13 297 284 311 290 284 290 295 290 292 297 293 270 271 268 273 289 293 285 284 280 278 277 271 256 233 227 224 259 283
261 243 260 278 292 261 290 177 317 304 297 305 266 328 2 339 319 307 293 292 280 295 320 311 300 300 298 299 299 295 285 277 276 278 275 273 277 276 268 250 236 223 229 253
224 243 263 256 253 283 245 225 274 310 298 317 326 262 316 324 313 288 271 342 335 317 301 289 288 297 301 294 282 289 297 301 292 278 269 268 267 271 272 262 254 231 230 221
221 235 232 251 249 274 63 109 15 308 254 38 2 340 317 319 293 294 345 324 310 304 301 300 295 285 288 294 299 296 290 282 284 281 288 280 266 269 272 274 263 256 241 235
196 192 215 229 251 270 105 105 289 253 39 307 309 320 312 303 308 314 307 303 310 305 297 291 294 289 293 298 288 280 285 284 293 291 279 284 288 286 274 261 263 254 248 251
236 209 205 229 244 251 78 243 312 343 310 323 318 314 309 305 303 302 302 303 299 292 294 292 289 290 299 304 291 270 268 280 281 274 275 269 273 278 275 284 288 276 256 254
233 247 327 246 269 223 315 306 354 327 300 319 317 316 310 304 303 305 308 308 303 298 300 306 300 310 301 295 285 282 285 278 277 277 269 276 276 271 265 267 268 267 256 260
309 298 259 285 232 350 221 245 300 323 329 327 319 314 313 307 304 307 309 303 297 305 299 306 320 305 299 293 301 286 286 288 286 274 268 264 262 259 255 257 256 248 248 250
287 273 282 271 215 295 51 352 325 328 326 326 323 315 307 308 312 309 295 300 303 312 326 324 313 299 293 285 282 293 289 276 273 265 260 257 252 250 251 244 242 242 239 236
327 355 315 323 14 334 320 329 347 341 331 326 319 315 314 317 302 301 308 315 327 323 315 301 299 297 299 296 288 283 281 280 268 271 270 264 260 256 249 248 249 239 241 248